#�ϑ�����,���ϕ���,���ϕ���,�ő啗��,�ő啗����������,�ő�u�ԕ���,�ő�u�ԕ�����������
#(�N����),(m/s)   ,(16����),(m/s)   ,(16����)        ,(m/s)       ,(16����)            
2016/3/10 0:01,1.5,16,1.8,2,2,10
2016/3/10 0:02,1.5,16,1.5,2,1.6,11
2016/3/10 0:03,1.4,15,1.5,2,1,12
2016/3/10 0:04,1.5,14,1.5,2,1.6,10
2016/3/10 0:05,1.2,12,1.5,2,0.8,10
2016/3/10 0:06,0.9,12,1.2,2,1.3,1
2016/3/10 0:07,0.7,13,0.8,2,1.5,1
2016/3/10 0:08,0.7,13,0.7,2,1.3,4
2016/3/10 0:09,0.7,14,0.7,2,1.8,2
2016/3/10 0:10,0.8,15,0.8,1,1.9,15
2016/3/10 0:11,0.9,16,0.9,16,2.7,1
2016/3/10 0:12,1.1,16,1.1,16,4.8,16
2016/3/10 0:13,1.3,1,1.3,15,4.3,15
2016/3/10 0:14,1.5,1,1.5,14,5.1,16
2016/3/10 0:15,1.7,1,1.7,1,4.1,15
2016/3/10 0:16,1.7,1,1.7,1,2.1,16
2016/3/10 0:17,1.8,16,1.8,16,1.6,15
2016/3/10 0:18,1.8,16,1.8,16,1.4,16
2016/3/10 0:19,1.8,16,1.8,16,2.2,16
2016/3/10 0:20,1.9,16,1.9,16,2,15
2016/3/10 0:21,1.8,16,1.9,16,2.2,16
2016/3/10 0:22,1.6,16,1.8,16,1,14
2016/3/10 0:23,1.4,16,1.6,16,1.8,16
2016/3/10 0:24,1.2,16,1.4,16,2,1
2016/3/10 0:25,1.1,16,1.2,16,2,5
2016/3/10 0:26,1.2,16,1.2,16,5,16
2016/3/10 0:27,1.2,1,1.2,16,1.5,1
2016/3/10 0:28,1.4,1,1.4,16,6,3
2016/3/10 0:29,1.5,1,1.5,16,5.5,3
2016/3/10 0:30,1.7,2,1.7,16,4.8,2
2016/3/10 0:31,1.7,2,1.7,16,2.5,2
2016/3/10 0:32,1.8,2,1.8,2,2.1,5
2016/3/10 0:33,1.8,2,1.8,2,2,4
2016/3/10 0:34,2,2,2,2,8.6,15
2016/3/10 0:35,2.4,2,2.4,2,6.8,12
2016/3/10 0:36,2.3,2,2.4,2,5.1,11
2016/3/10 0:37,2.3,2,2.3,2,2.9,5
2016/3/10 0:38,2.3,2,2.4,2,4.8,15
2016/3/10 0:39,2.3,1,2.3,2,3.8,16
2016/3/10 0:40,2,1,2.2,2,2,12
2016/3/10 0:41,1.9,1,2,2,2.2,3
2016/3/10 0:42,2,16,2,2,4.1,1
2016/3/10 0:43,2.1,16,2.1,2,4.8,1
2016/3/10 0:44,1.9,16,2.1,2,3,1
2016/3/10 0:45,1.8,2,1.9,2,5.4,2
2016/3/10 0:46,2.2,1,2.2,2,8.5,15
2016/3/10 0:47,2.6,1,2.6,1,8.6,2
2016/3/10 0:48,2.7,1,2.7,1,6.4,1
2016/3/10 0:49,2.7,2,2.7,1,5.2,3
2016/3/10 0:50,2.9,2,2.9,2,3,3
2016/3/10 0:51,2.9,2,2.9,2,4.2,1
2016/3/10 0:52,2.9,2,2.9,2,3.8,2
2016/3/10 0:53,3,2,3,2,6.7,1
2016/3/10 0:54,3.4,2,3.4,2,8.9,2
2016/3/10 0:55,3.4,1,3.4,2,6,1
2016/3/10 0:56,3,2,3.3,2,3.5,15
2016/3/10 0:57,2.7,1,3,2,3.1,1
2016/3/10 0:58,2.7,1,2.7,2,5.5,1
2016/3/10 0:59,2.9,1,2.9,2,10,5
2016/3/10 1:00,3.3,1,3.3,2,10.2,15
2016/3/10 1:01,3.6,1,3.6,1,7.7,16
2016/3/10 1:02,3.8,1,3.8,1,6.8,16
2016/3/10 1:03,3.7,1,3.8,1,4.9,16
2016/3/10 1:04,3.4,16,3.7,1,6.7,13
2016/3/10 1:05,3.7,16,3.7,1,10.5,15
2016/3/10 1:06,4,16,4,16,8.5,16
2016/3/10 1:07,4.2,16,4.2,16,8.2,1
2016/3/10 1:08,4.4,16,4.4,16,10,1
2016/3/10 1:09,4.2,16,4.4,16,9.5,14
2016/3/10 1:10,4.3,16,4.3,16,10.9,16
2016/3/10 1:11,4.6,16,4.6,16,11.8,1
2016/3/10 1:12,4.5,16,4.6,16,6.4,16
2016/3/10 1:13,4.5,16,4.6,16,5.8,16
2016/3/10 1:14,4.9,16,4.9,16,10.9,16
2016/3/10 1:15,4.7,1,4.8,16,6.7,1
2016/3/10 1:16,4.8,16,4.8,16,9.1,16
2016/3/10 1:17,4.8,16,4.9,16,8.3,16
2016/3/10 1:18,5.3,16,5.3,16,16,1
2016/3/10 1:19,5.7,16,5.7,16,13,16
2016/3/10 1:20,5.5,16,5.7,16,9.2,16
2016/3/10 1:21,5.5,16,5.5,16,13.2,2
2016/3/10 1:22,5.8,16,5.8,16,8.6,16
2016/3/10 1:23,5.8,1,5.8,16,5.8,1
2016/3/10 1:24,5.5,16,5.8,16,7.1,16
2016/3/10 1:25,5.7,16,5.7,16,10.6,1
2016/3/10 1:26,5.5,1,5.7,16,9.5,1
2016/3/10 1:27,5.7,16,5.7,16,13.1,16
2016/3/10 1:28,5.3,16,5.8,16,10.1,16
2016/3/10 1:29,5,1,5.3,16,10.1,3
2016/3/10 1:30,4.9,1,5.1,16,10.6,16
2016/3/10 1:31,4.8,1,4.9,16,10.3,16
2016/3/10 1:32,4.6,1,4.8,1,7.5,1
2016/3/10 1:33,4.7,1,4.7,16,6.2,1
2016/3/10 1:34,4.5,1,4.7,16,3.8,5
2016/3/10 1:35,4.2,1,4.4,16,6.3,2
2016/3/10 1:36,3.9,1,4.2,16,3,14
2016/3/10 1:37,3.8,1,3.9,16,10.5,3
2016/3/10 1:38,3.6,1,3.7,16,11.3,2
2016/3/10 1:39,3.6,1,3.7,1,11.3,16
2016/3/10 1:40,3.6,1,3.8,1,8.6,3
2016/3/10 1:41,3.6,1,3.6,1,10.9,1
2016/3/10 1:42,3.7,1,3.7,1,9.1,16
2016/3/10 1:43,3.8,1,3.8,1,9.3,3
2016/3/10 1:44,4.2,1,4.2,1,9.3,2
2016/3/10 1:45,4.3,1,4.4,1,6.8,2
2016/3/10 1:46,4.9,1,4.9,1,15.7,1
2016/3/10 1:47,4.7,1,4.9,1,8.9,15
2016/3/10 1:48,4.9,1,5,1,11.4,1
2016/3/10 1:49,4.8,1,4.9,1,9.8,3
2016/3/10 1:50,4.7,1,4.8,1,5.5,16
2016/3/10 1:51,4.5,1,4.8,1,8.4,1
2016/3/10 1:52,4.3,1,4.6,1,5.4,16
2016/3/10 1:53,4.3,1,4.4,1,9.2,14
2016/3/10 1:54,4.1,1,4.3,1,7.1,1
2016/3/10 1:55,4.1,1,4.1,1,8.3,2
2016/3/10 1:56,3.9,1,4.2,1,9.4,16
2016/3/10 1:57,4.2,1,4.2,1,11.4,1
2016/3/10 1:58,4.2,1,4.3,1,10.1,1
2016/3/10 1:59,4.1,1,4.1,1,8.3,3
2016/3/10 2:00,4.1,1,4.1,1,5.7,15
2016/3/10 2:01,4,1,4.1,1,4.8,1
2016/3/10 2:02,4.2,1,4.2,1,8.7,1
2016/3/10 2:03,4.2,1,4.3,1,7.5,4
2016/3/10 2:04,4.4,1,4.4,1,9.9,2
2016/3/10 2:05,4.2,1,4.4,1,6.7,2
2016/3/10 2:06,4.3,2,4.3,1,9.4,1
2016/3/10 2:07,4,2,4.3,1,7.2,3
2016/3/10 2:08,3.7,2,3.9,1,3.5,3
2016/3/10 2:09,3.5,2,3.6,1,9.1,16
2016/3/10 2:10,3.5,2,3.6,1,4.3,4
2016/3/10 2:11,3.6,2,3.6,1,8.1,2
2016/3/10 2:12,3.7,2,3.8,1,10.5,2
2016/3/10 2:13,3.6,2,3.7,1,8.5,1
2016/3/10 2:14,3.5,1,3.6,1,10.3,1
2016/3/10 2:15,3.8,1,3.8,1,9.9,2
2016/3/10 2:16,3.7,1,3.9,2,6.8,1
2016/3/10 2:17,3.7,1,3.7,2,6.5,2
2016/3/10 2:18,3.9,1,3.9,1,5.5,16
2016/3/10 2:19,4.1,1,4.1,1,10.8,16
2016/3/10 2:20,4.8,1,4.8,1,13.8,1
2016/3/10 2:21,4.9,1,4.9,1,8.6,2
2016/3/10 2:22,4.8,1,4.8,1,9.2,2
2016/3/10 2:23,4.8,1,4.8,1,9.2,1
2016/3/10 2:24,4.9,1,4.9,1,9.8,2
2016/3/10 2:25,4.5,1,4.8,1,10.3,1
2016/3/10 2:26,4.5,1,4.6,1,7.4,2
2016/3/10 2:27,4.6,1,4.6,1,9.9,16
2016/3/10 2:28,4.6,1,4.7,1,8.5,16
2016/3/10 2:29,4.7,1,4.7,1,9.2,2
2016/3/10 2:30,4.1,1,4.6,1,7.4,3
2016/3/10 2:31,4,1,4.1,1,8.9,2
2016/3/10 2:32,3.9,1,4,1,6.5,16
2016/3/10 2:33,3.8,1,3.9,1,9.3,3
2016/3/10 2:34,3.6,1,3.8,1,4.8,15
2016/3/10 2:35,3.8,1,3.8,1,8.2,16
2016/3/10 2:36,3.9,1,3.9,1,7.7,16
2016/3/10 2:37,3.8,1,3.9,1,7.4,2
2016/3/10 2:38,3.8,1,3.8,1,5.8,1
2016/3/10 2:39,3.5,1,3.9,1,5.1,1
2016/3/10 2:40,3.4,1,3.5,1,5.4,16
2016/3/10 2:41,3.5,1,3.5,1,7.9,16
2016/3/10 2:42,3.6,1,3.6,1,5.6,2
2016/3/10 2:43,3.5,1,3.6,1,4.3,1
2016/3/10 2:44,3.5,1,3.5,1,5.7,1
2016/3/10 2:45,3.4,1,3.6,1,8.1,3
2016/3/10 2:46,3.2,1,3.4,1,6,16
2016/3/10 2:47,3.3,1,3.3,1,7.5,1
2016/3/10 2:48,3.4,1,3.4,1,7.4,2
2016/3/10 2:49,3.6,1,3.6,1,9.2,14
2016/3/10 2:50,4,1,4,1,10.3,1
2016/3/10 2:51,4,1,4,1,9.4,1
2016/3/10 2:52,4.2,1,4.2,1,10.9,15
2016/3/10 2:53,4.4,1,4.5,1,10.3,11
2016/3/10 2:54,4.7,1,4.7,1,11.1,2
2016/3/10 2:55,4.9,1,4.9,1,11.4,16
2016/3/10 2:56,5.1,1,5.1,1,7.8,1
2016/3/10 2:57,5.3,1,5.3,1,14.4,1
2016/3/10 2:58,5.5,16,5.5,16,10.5,1
2016/3/10 2:59,5.5,16,5.6,16,7.7,16
2016/3/10 3:00,5.4,16,5.5,16,10.1,16
2016/3/10 3:01,5.5,16,5.5,16,10.8,1
2016/3/10 3:02,5.4,16,5.5,16,8.5,16
2016/3/10 3:03,5.6,16,5.6,16,12.8,16
2016/3/10 3:04,5.7,16,5.7,16,11.5,16
2016/3/10 3:05,5.8,16,5.8,16,13.1,16
2016/3/10 3:06,5.8,16,5.8,16,7.9,1
2016/3/10 3:07,5.6,16,6,16,9.1,16
2016/3/10 3:08,5.4,16,5.6,16,7.6,2
2016/3/10 3:09,5.2,16,5.3,16,5.8,15
2016/3/10 3:10,5.1,16,5.3,16,8.7,16
2016/3/10 3:11,5,16,5.2,16,9.5,16
2016/3/10 3:12,5,16,5,16,5.1,1
2016/3/10 3:13,4.7,16,4.9,16,10.9,2
2016/3/10 3:14,4.6,16,4.7,16,9.5,14
2016/3/10 3:15,4.4,16,4.5,16,10.1,16
2016/3/10 3:16,4.3,16,4.4,16,8.1,1
2016/3/10 3:17,4.3,16,4.3,16,7.8,16
2016/3/10 3:18,4.5,16,4.5,16,9.8,15
2016/3/10 3:19,4.5,16,4.6,16,6.7,15
2016/3/10 3:20,4.6,16,4.7,16,7.8,1
2016/3/10 3:21,4.8,16,4.8,16,12.3,16
2016/3/10 3:22,4.7,16,4.8,16,7.8,1
2016/3/10 3:23,4.8,16,4.9,16,13.8,1
2016/3/10 3:24,4.7,16,4.9,16,10.9,15
2016/3/10 3:25,5,16,5,16,11.5,15
2016/3/10 3:26,5.2,16,5.2,16,10.6,15
2016/3/10 3:27,5.2,16,5.2,16,9.1,16
2016/3/10 3:28,5.4,16,5.5,16,14,15
2016/3/10 3:29,5.8,16,5.8,16,12.8,16
2016/3/10 3:30,5.8,16,5.9,16,13.6,16
2016/3/10 3:31,5.7,16,5.9,16,8.3,16
2016/3/10 3:32,5.6,16,5.7,16,6.2,1
2016/3/10 3:33,5.7,16,5.7,16,13.9,16
2016/3/10 3:34,6,16,6,16,11.6,15
2016/3/10 3:35,5.8,16,5.9,16,9.1,16
2016/3/10 3:36,5.8,16,5.8,16,9.7,16
2016/3/10 3:37,5.7,16,5.8,16,5.7,2
2016/3/10 3:38,5.3,16,5.6,16,8.3,1
2016/3/10 3:39,4.9,16,5.2,16,9.2,16
2016/3/10 3:40,4.9,1,4.9,16,9.7,2
2016/3/10 3:41,5,1,5,16,13.5,15
2016/3/10 3:42,5.4,1,5.4,16,11.5,16
2016/3/10 3:43,5.4,1,5.4,16,14.7,16
2016/3/10 3:44,5.4,1,5.5,16,12.8,1
2016/3/10 3:45,5.4,1,5.4,16,10,16
2016/3/10 3:46,5.3,1,5.4,16,7.5,16
2016/3/10 3:47,5.2,1,5.3,16,6.2,16
2016/3/10 3:48,5.4,16,5.4,1,8.7,2
2016/3/10 3:49,5.4,1,5.4,1,8.7,2
2016/3/10 3:50,5.7,16,5.7,16,14.1,16
2016/3/10 3:51,5.8,16,5.9,16,13.1,16
2016/3/10 3:52,5.6,16,5.7,16,8.2,16
2016/3/10 3:53,5.4,16,5.7,16,9.5,2
2016/3/10 3:54,5.2,16,5.4,16,8.3,16
2016/3/10 3:55,5.2,16,5.3,16,7.8,16
2016/3/10 3:56,5.2,16,5.2,16,8.4,1
2016/3/10 3:57,5.4,16,5.5,16,13.6,1
2016/3/10 3:58,5.6,16,5.6,16,13.6,15
2016/3/10 3:59,6,16,6,16,15.7,16
2016/3/10 4:00,5.8,16,6.1,16,13.4,1
2016/3/10 4:01,5.8,16,5.8,16,14.9,16
2016/3/10 4:02,5.8,16,5.8,16,9.7,15
2016/3/10 4:03,5.7,16,5.9,16,10.7,2
2016/3/10 4:04,5.6,16,5.7,16,10.2,1
2016/3/10 4:05,5.6,16,5.6,16,12.7,1
2016/3/10 4:06,5.9,16,5.9,16,16.5,16
2016/3/10 4:07,6,16,6,16,10.2,15
2016/3/10 4:08,6.1,16,6.1,16,12.5,16
2016/3/10 4:09,6.1,16,6.4,16,16.6,16
2016/3/10 4:10,6,16,6.1,16,12.2,16
2016/3/10 4:11,6,16,6.1,16,10.5,16
2016/3/10 4:12,6.3,1,6.3,16,13.5,15
2016/3/10 4:13,6.3,16,6.3,16,9.5,16
2016/3/10 4:14,6.5,16,6.6,16,10.3,16
2016/3/10 4:15,6.4,16,6.5,16,8.2,1
2016/3/10 4:16,6.1,16,6.3,16,12.3,1
2016/3/10 4:17,6.3,1,6.3,16,15.1,2
2016/3/10 4:18,6,16,6.3,16,11.7,16
2016/3/10 4:19,5.8,16,5.9,16,11.5,1
2016/3/10 4:20,5.7,16,5.7,16,10.2,2
2016/3/10 4:21,5.6,1,5.7,16,11.9,1
2016/3/10 4:22,5.1,1,5.6,16,7,2
2016/3/10 4:23,5.1,1,5.2,16,10.3,1
2016/3/10 4:24,5.3,1,5.3,16,15,16
2016/3/10 4:25,5.5,1,5.5,16,10.8,1
2016/3/10 4:26,5.6,1,5.6,1,13.8,2
2016/3/10 4:27,5.5,1,5.8,1,12.2,1
2016/3/10 4:28,5.8,1,5.8,1,14.3,1
2016/3/10 4:29,5.7,1,5.9,1,11.3,16
2016/3/10 4:30,5.7,1,5.7,1,6.4,3
2016/3/10 4:31,5.4,1,5.7,1,7,2
2016/3/10 4:32,5.7,1,5.7,1,12.8,1
2016/3/10 4:33,6.2,1,6.2,1,11.6,2
2016/3/10 4:34,5.9,1,6.1,1,9.4,1
2016/3/10 4:35,6,1,6,1,13.8,2
2016/3/10 4:36,6.1,1,6.1,1,10.9,1
2016/3/10 4:37,5.9,1,6,1,9.3,16
2016/3/10 4:38,5.7,1,5.9,1,11.4,2
2016/3/10 4:39,5.5,1,5.6,1,10.5,1
2016/3/10 4:40,6,1,6,1,13.8,2
2016/3/10 4:41,6,1,6,1,6.5,4
2016/3/10 4:42,5.6,1,6,1,6,3
2016/3/10 4:43,4.9,1,5.5,1,3.1,5
2016/3/10 4:44,4.6,1,4.9,1,5.7,1
2016/3/10 4:45,4.4,2,4.6,1,7,3
2016/3/10 4:46,4,2,4.3,1,9.3,16
2016/3/10 4:47,4,2,4,1,9.9,2
2016/3/10 4:48,4,2,4.1,1,9.1,2
2016/3/10 4:49,4,2,4.1,1,8.9,1
2016/3/10 4:50,3.9,2,3.9,1,11.7,16
2016/3/10 4:51,3.9,2,4,1,9.9,15
2016/3/10 4:52,4.1,2,4.1,1,10,2
2016/3/10 4:53,4.4,2,4.4,1,13.5,2
2016/3/10 4:54,4.8,2,4.8,2,13.1,16
2016/3/10 4:55,5.1,2,5.1,2,10.6,1
2016/3/10 4:56,5,1,5.1,2,6.3,2
2016/3/10 4:57,5.2,1,5.2,1,13.3,16
2016/3/10 4:58,5,1,5.1,1,9.2,15
2016/3/10 4:59,5.2,1,5.2,1,12.2,16
2016/3/10 5:00,5,1,5.2,1,9.1,15
2016/3/10 5:01,5.2,2,5.2,1,11.9,1
2016/3/10 5:02,5.3,1,5.4,1,10.7,1
2016/3/10 5:03,5.3,1,5.4,1,8.5,4
2016/3/10 5:04,5.2,1,5.4,1,12.4,15
2016/3/10 5:05,5.2,1,5.2,1,9.9,1
2016/3/10 5:06,5.7,1,5.7,1,12.6,16
2016/3/10 5:07,5.7,1,5.9,1,13.2,2
2016/3/10 5:08,6,1,6,1,11.7,15
2016/3/10 5:09,6,1,6.1,1,13.5,1
2016/3/10 5:10,6.1,1,6.1,1,9.9,3
2016/3/10 5:11,5.9,1,6.1,1,9.9,1
2016/3/10 5:12,5.7,1,5.9,1,6.8,2
2016/3/10 5:13,5.9,1,5.9,1,13.6,1
2016/3/10 5:14,6.2,1,6.2,1,14.9,16
2016/3/10 5:15,6.3,1,6.3,1,12.8,1
2016/3/10 5:16,6.5,1,6.5,1,15.4,2
2016/3/10 5:17,6.4,1,6.4,1,9.1,1
2016/3/10 5:18,6.6,1,6.6,1,20.9,16
2016/3/10 5:19,6.4,1,6.6,1,14.1,16
2016/3/10 5:20,6.6,1,6.6,1,13.6,2
2016/3/10 5:21,6.9,1,6.9,1,11.9,15
2016/3/10 5:22,7.2,1,7.2,1,11.3,2
2016/3/10 5:23,7.2,1,7.3,1,11.8,2
2016/3/10 5:24,6.9,1,7.2,1,12.3,2
2016/3/10 5:25,7.1,1,7.1,1,13.6,16
2016/3/10 5:26,7,1,7.1,1,13.6,2
2016/3/10 5:27,7.2,1,7.2,1,14.7,16
2016/3/10 5:28,6.9,1,7.2,1,16.5,16
2016/3/10 5:29,7.1,1,7.2,1,14.9,15
2016/3/10 5:30,7.1,1,7.2,1,14.5,1
2016/3/10 5:31,6.8,1,7,1,9.7,2
2016/3/10 5:32,6.7,1,6.8,1,10.3,16
2016/3/10 5:33,6.5,1,6.7,1,7.8,1
2016/3/10 5:34,6.2,16,6.5,1,8.7,15
2016/3/10 5:35,5.8,16,6.2,1,10.2,1
2016/3/10 5:36,5.6,16,5.8,1,12.6,1
2016/3/10 5:37,5.4,1,5.6,1,10.8,1
2016/3/10 5:38,5.8,1,5.8,1,14.5,16
2016/3/10 5:39,5.4,1,5.7,1,9.5,16
2016/3/10 5:40,5,1,5.3,1,5.6,15
2016/3/10 5:41,5.4,1,5.4,1,13.8,1
2016/3/10 5:42,5.5,1,5.5,1,10.6,16
2016/3/10 5:43,5.6,1,5.7,1,12.1,1
2016/3/10 5:44,5.8,1,5.8,16,10,16
2016/3/10 5:45,6,1,6,1,13.2,15
2016/3/10 5:46,5.9,1,6,1,9.3,1
2016/3/10 5:47,5.8,1,5.9,1,9.9,1
2016/3/10 5:48,5.7,1,5.9,1,10.2,16
2016/3/10 5:49,5.9,1,5.9,1,11.3,2
2016/3/10 5:50,6.1,1,6.2,1,12.4,1
2016/3/10 5:51,5.8,1,6.1,1,8.9,2
2016/3/10 5:52,5.5,1,5.9,1,6.2,16
2016/3/10 5:53,5.4,1,5.4,1,8.7,2
2016/3/10 5:54,5.3,1,5.4,1,7.9,1
2016/3/10 5:55,5,1,5.2,1,7,1
2016/3/10 5:56,4.8,1,5,1,6.7,2
2016/3/10 5:57,4.4,1,4.8,1,5.4,2
2016/3/10 5:58,4.1,1,4.3,1,8.7,16
2016/3/10 5:59,4,1,4.2,1,11.5,16
2016/3/10 6:00,4,1,4,1,10,2
2016/3/10 6:01,4,2,4,1,7.4,1
2016/3/10 6:02,4,2,4,1,6.8,1
2016/3/10 6:03,4,2,4.1,1,12.1,1
2016/3/10 6:04,4.2,1,4.2,1,10.1,14
2016/3/10 6:05,4.3,1,4.3,1,9.2,16
2016/3/10 6:06,4.3,1,4.4,1,7.7,15
2016/3/10 6:07,4.7,1,4.7,1,8.4,3
2016/3/10 6:08,4.7,1,4.8,1,8.5,16
2016/3/10 6:09,4.8,1,4.8,1,11.7,1
2016/3/10 6:10,4.7,1,4.9,1,9.8,2
2016/3/10 6:11,4.8,1,4.8,1,8.2,3
2016/3/10 6:12,4.9,1,4.9,1,8.6,16
2016/3/10 6:13,4.8,1,5,1,7.1,15
2016/3/10 6:14,4.7,1,4.8,1,10.3,1
2016/3/10 6:15,4.6,2,4.7,1,8.6,1
2016/3/10 6:16,4.6,2,4.6,1,7,3
2016/3/10 6:17,4.5,2,4.7,1,7.6,3
2016/3/10 6:18,4.4,2,4.5,1,6.2,16
2016/3/10 6:19,4.2,2,4.4,1,7.8,2
2016/3/10 6:20,4.1,2,4.2,1,8.3,2
2016/3/10 6:21,4,2,4.1,1,5.5,2
2016/3/10 6:22,3.8,2,4,1,6.1,2
2016/3/10 6:23,3.8,2,3.8,1,5.8,16
2016/3/10 6:24,3.7,2,3.8,1,6.9,3
2016/3/10 6:25,3.7,2,3.7,2,10.6,1
2016/3/10 6:26,3.6,2,3.6,2,6.3,6
2016/3/10 6:27,3.5,2,3.6,2,5,3
2016/3/10 6:28,3.4,2,3.5,2,4.4,3
2016/3/10 6:29,3.2,3,3.4,2,2.4,5
2016/3/10 6:30,3,3,3.1,2,4.2,5
2016/3/10 6:31,3,3,3,2,4.9,3
2016/3/10 6:32,2.9,3,3,2,5.1,3
2016/3/10 6:33,2.7,3,2.9,2,3,3
2016/3/10 6:34,2.5,3,2.7,2,3.6,4
2016/3/10 6:35,2.5,3,2.6,2,4.7,3
2016/3/10 6:36,2.5,3,2.5,2,5.2,2
2016/3/10 6:37,2.5,3,2.5,2,6.1,4
2016/3/10 6:38,2.7,3,2.7,2,6.2,3
2016/3/10 6:39,2.9,3,2.9,3,5.7,3
2016/3/10 6:40,2.9,3,3,3,3.2,5
2016/3/10 6:41,2.8,3,2.9,3,3.5,4
2016/3/10 6:42,2.7,3,2.8,3,5.1,3
2016/3/10 6:43,2.9,3,2.9,3,4.9,3
2016/3/10 6:44,3.1,3,3.1,3,5.4,16
2016/3/10 6:45,3.3,3,3.3,3,6.5,16
2016/3/10 6:46,3.1,2,3.3,3,3.9,16
2016/3/10 6:47,2.8,2,3,3,1.5,1
2016/3/10 6:48,2.4,2,2.8,3,2.1,1
2016/3/10 6:49,2,2,2.4,3,0.5,4
2016/3/10 6:50,1.9,2,2,3,1.4,7
2016/3/10 6:51,1.9,2,1.9,3,2.5,8
2016/3/10 6:52,1.7,3,1.9,3,2.7,7
2016/3/10 6:53,1.5,4,1.7,3,2.1,8
2016/3/10 6:54,1.4,6,1.5,3,3.2,8
2016/3/10 6:55,1.2,7,1.4,3,2.7,8
2016/3/10 6:56,1.1,7,1.2,2,1.5,9
2016/3/10 6:57,1.1,8,1.1,2,1.1,10
2016/3/10 6:58,1.1,8,1.1,2,2.5,9
2016/3/10 6:59,1.3,8,1.3,2,2.6,8
2016/3/10 7:00,1.3,8,1.3,2,1.9,8
2016/3/10 7:01,1.2,9,1.2,2,1.1,8
2016/3/10 7:02,1.2,9,1.2,3,1.8,10
2016/3/10 7:03,1.2,9,1.2,4,2.1,8
2016/3/10 7:04,1.1,9,1.2,6,2.1,9
2016/3/10 7:05,0.9,9,1.1,8,0.9,9
2016/3/10 7:06,0.8,9,0.9,8,0.5,12
2016/3/10 7:07,0.9,9,0.9,8,1.3,16
2016/3/10 7:08,0.8,9,0.9,8,1.3,1
2016/3/10 7:09,0.7,11,0.8,8,0.9,1
2016/3/10 7:10,0.7,15,0.7,8,1.1,1
2016/3/10 7:11,0.7,1,0.7,9,0.4,1
2016/3/10 7:12,0.6,1,0.7,9,0.3,1
2016/3/10 7:13,0.5,1,0.6,9,0.5,1
2016/3/10 7:14,0.4,2,0.5,9,0.8,3
2016/3/10 7:15,0.5,2,0.5,9,1.3,3
2016/3/10 7:16,0.5,2,0.5,9,1,4
2016/3/10 7:17,0.5,2,0.5,9,2,16
2016/3/10 7:18,0.5,2,0.5,9,1.8,13
2016/3/10 7:19,0.6,1,0.6,11,2.2,12
2016/3/10 7:20,0.8,1,0.8,1,2.7,14
2016/3/10 7:21,1,1,1,1,3.6,16
2016/3/10 7:22,1.3,16,1.3,16,4.5,14
2016/3/10 7:23,1.6,16,1.6,16,3.9,16
2016/3/10 7:24,1.8,16,1.8,16,4.7,15
2016/3/10 7:25,2.1,15,2.1,15,6.4,16
2016/3/10 7:26,2.3,15,2.3,15,5.6,16
2016/3/10 7:27,2.6,15,2.6,15,5.7,1
2016/3/10 7:28,2.7,16,2.8,16,5,16
2016/3/10 7:29,2.8,16,2.8,16,4.1,1
2016/3/10 7:30,2.8,16,2.8,16,2.6,16
2016/3/10 7:31,2.7,1,2.8,16,2.9,1
2016/3/10 7:32,2.5,1,2.7,16,2.5,2
2016/3/10 7:33,2.5,1,2.5,16,3.7,16
2016/3/10 7:34,2.4,1,2.4,16,3.8,16
2016/3/10 7:35,2.2,1,2.4,16,3.3,2
2016/3/10 7:36,2.2,1,2.2,16,3.1,3
2016/3/10 7:37,2.1,1,2.2,16,3.6,1
2016/3/10 7:38,1.9,1,2.1,16,3,2
2016/3/10 7:39,1.9,1,2,16,3.1,3
2016/3/10 7:40,2,2,2,1,3.1,3
2016/3/10 7:41,2,2,2,1,3,4
2016/3/10 7:42,2.1,2,2.1,1,2.7,5
2016/3/10 7:43,2.2,3,2.2,1,3.6,6
2016/3/10 7:44,2.2,3,2.2,1,3.2,4
2016/3/10 7:45,2.2,4,2.2,1,3,5
2016/3/10 7:46,2.1,4,2.1,1,2.9,5
2016/3/10 7:47,2.1,4,2.1,3,4.2,5
2016/3/10 7:48,2.3,5,2.3,5,3.6,5
2016/3/10 7:49,2.4,5,2.4,5,3.2,5
2016/3/10 7:50,2.3,5,2.4,5,3.1,3
2016/3/10 7:51,2.3,5,2.4,5,3.2,4
2016/3/10 7:52,2.3,4,2.3,5,2,2
2016/3/10 7:53,2.2,4,2.3,5,3.1,3
2016/3/10 7:54,2.3,4,2.3,5,5,4
2016/3/10 7:55,2.5,4,2.5,4,4.7,4
2016/3/10 7:56,2.5,3,2.5,4,3.3,2
2016/3/10 7:57,2.3,3,2.4,4,3.3,3
2016/3/10 7:58,2.2,3,2.3,4,2.7,2
2016/3/10 7:59,2.2,3,2.2,4,3.5,3
2016/3/10 8:00,2.2,3,2.2,4,2.5,4
2016/3/10 8:01,2.1,3,2.2,4,2.1,4
2016/3/10 8:02,2.1,3,2.1,4,2.2,5
2016/3/10 8:03,2.1,4,2.1,4,2.6,6
2016/3/10 8:04,1.9,4,2.1,4,2.2,9
2016/3/10 8:05,1.7,4,1.9,4,3,7
2016/3/10 8:06,1.8,5,1.8,3,3.2,8
2016/3/10 8:07,1.7,5,1.7,3,2,6
2016/3/10 8:08,1.7,6,1.7,3,1.9,6
2016/3/10 8:09,1.6,6,1.7,3,2.1,7
2016/3/10 8:10,1.6,7,1.6,3,2.7,8
2016/3/10 8:11,1.6,7,1.6,3,2.2,8
2016/3/10 8:12,1.6,7,1.6,3,2.2,8
2016/3/10 8:13,1.5,8,1.6,4,1.1,7
2016/3/10 8:14,1.5,8,1.5,4,1.5,8
2016/3/10 8:15,1.4,8,1.5,5,1.5,7
2016/3/10 8:16,1.3,8,1.4,5,2,8
2016/3/10 8:17,1.3,8,1.3,5,1.8,8
2016/3/10 8:18,1.2,8,1.3,6,1.3,8
2016/3/10 8:19,1.1,8,1.2,6,1.1,9
2016/3/10 8:20,1,8,1.1,7,1,8
2016/3/10 8:21,0.9,8,1,7,0.8,11
2016/3/10 8:22,0.7,8,0.9,7,1,4
2016/3/10 8:23,0.7,8,0.7,8,0.4,7
2016/3/10 8:24,0.6,8,0.7,8,1.3,9
2016/3/10 8:25,0.7,8,0.7,8,1.8,8
2016/3/10 8:26,0.6,8,0.7,8,1.8,8
2016/3/10 8:27,0.6,8,0.6,8,1.3,7
2016/3/10 8:28,0.6,8,0.6,8,1.3,8
2016/3/10 8:29,0.6,8,0.6,8,1.5,7
2016/3/10 8:30,0.6,8,0.6,8,1.6,6
2016/3/10 8:31,0.7,8,0.7,8,2.7,8
2016/3/10 8:32,0.8,8,0.8,8,2.4,9
2016/3/10 8:33,0.9,8,0.9,8,1.4,9
2016/3/10 8:34,1,8,1,8,2.2,8
2016/3/10 8:35,1.1,8,1.1,8,2.1,8
2016/3/10 8:36,1,8,1.1,8,1.4,8
2016/3/10 8:37,1,8,1,8,1.4,7
2016/3/10 8:38,1,8,1,8,1.1,10
2016/3/10 8:39,1,8,1,8,1.9,8
2016/3/10 8:40,1,8,1,8,2.5,9
2016/3/10 8:41,1,8,1.1,8,2.1,9
2016/3/10 8:42,1,8,1,8,2.7,8
2016/3/10 8:43,1.1,8,1.1,8,2.5,8
2016/3/10 8:44,1.1,8,1.1,8,2.2,7
2016/3/10 8:45,1,8,1.1,8,1.4,9
2016/3/10 8:46,1.1,7,1.1,8,2,8
2016/3/10 8:47,1.2,7,1.2,7,2,7
2016/3/10 8:48,1.3,7,1.3,7,2.2,8
2016/3/10 8:49,1.3,7,1.3,7,1.6,6
2016/3/10 8:50,1.2,7,1.3,7,1.5,6
2016/3/10 8:51,1.1,7,1.2,7,1,9
2016/3/10 8:52,1.1,7,1.1,7,2,8
2016/3/10 8:53,0.9,7,1.1,7,1.5,9
2016/3/10 8:54,0.8,7,0.9,7,1.3,10
2016/3/10 8:55,0.8,7,0.8,7,1.5,8
2016/3/10 8:56,0.8,7,0.9,7,1.8,10
2016/3/10 8:57,0.8,7,0.8,7,1.8,7
2016/3/10 8:58,0.8,7,0.8,7,2,6
2016/3/10 8:59,0.8,8,0.8,7,1.6,9
2016/3/10 9:00,0.8,8,0.8,7,1.8,9
2016/3/10 9:01,0.9,8,0.9,7,2.2,8
2016/3/10 9:02,0.9,9,0.9,7,1.3,9
2016/3/10 9:03,0.9,8,0.9,7,0.6,11
2016/3/10 9:04,0.9,8,0.9,7,1.8,7
2016/3/10 9:05,1,8,1,8,1.8,5
2016/3/10 9:06,1,7,1,8,1.9,6
2016/3/10 9:07,1,7,1,8,0.8,3
2016/3/10 9:08,0.9,6,1,8,1.8,6
2016/3/10 9:09,0.8,6,0.9,8,1.4,10
2016/3/10 9:10,0.8,6,0.8,8,1.1,8
2016/3/10 9:11,0.8,6,0.8,8,2.4,5
2016/3/10 9:12,0.9,6,0.9,8,3,5
2016/3/10 9:13,1,6,1,8,2,5
2016/3/10 9:14,1,6,1,8,1.3,4
2016/3/10 9:15,1,6,1,8,3,8
2016/3/10 9:16,1,6,1,7,3.3,7
2016/3/10 9:17,1.2,7,1.2,6,3.5,8
2016/3/10 9:18,1.3,7,1.3,7,2.4,9
2016/3/10 9:19,1.4,7,1.4,7,2.4,8
2016/3/10 9:20,1.5,8,1.5,7,3.7,8
2016/3/10 9:21,1.5,8,1.6,8,3.5,9
2016/3/10 9:22,1.5,8,1.5,8,2.6,7
2016/3/10 9:23,1.6,9,1.6,8,4.1,8
2016/3/10 9:24,1.7,9,1.7,9,3.1,9
2016/3/10 9:25,1.8,8,1.8,9,2.1,8
2016/3/10 9:26,1.7,8,1.8,9,2,6
2016/3/10 9:27,1.6,8,1.7,9,2,7
2016/3/10 9:28,1.6,8,1.6,9,1.9,8
2016/3/10 9:29,1.6,9,1.6,9,2,10
2016/3/10 9:30,1.5,9,1.6,9,1.3,11
2016/3/10 9:31,1.4,9,1.4,9,0.8,10
2016/3/10 9:32,1.3,9,1.4,9,0.3,10
2016/3/10 9:33,1,9,1.3,9,0.9,8
2016/3/10 9:34,0.9,9,1,9,1.5,7
2016/3/10 9:35,0.9,9,0.9,8,2.5,8
2016/3/10 9:36,0.9,10,0.9,8,1.8,8
2016/3/10 9:37,0.9,10,0.9,8,4.2,8
2016/3/10 9:38,1.1,10,1.1,8,3.8,9
2016/3/10 9:39,1.2,9,1.2,9,4.2,9
2016/3/10 9:40,1.4,9,1.4,9,4.7,8
2016/3/10 9:41,1.5,9,1.5,9,3.2,8
2016/3/10 9:42,1.7,8,1.7,9,3.2,8
2016/3/10 9:43,2,8,2,8,4.7,8
2016/3/10 9:44,2.1,8,2.1,8,3.5,8
2016/3/10 9:45,2.3,8,2.3,8,5.4,8
2016/3/10 9:46,2.5,8,2.5,8,4.4,8
2016/3/10 9:47,2.5,8,2.5,8,2.7,9
2016/3/10 9:48,2.3,8,2.5,8,2.5,8
2016/3/10 9:49,2.1,8,2.3,8,2.5,7
2016/3/10 9:50,2,8,2.1,8,2.9,8
2016/3/10 9:51,2,8,2,8,2.5,7
2016/3/10 9:52,2,8,2,8,2.4,7
2016/3/10 9:53,1.8,7,2,8,2.1,7
2016/3/10 9:54,1.7,7,1.8,8,1.8,8
2016/3/10 9:55,1.5,7,1.7,8,3.5,8
2016/3/10 9:56,1.4,7,1.5,8,2.2,8
2016/3/10 9:57,1.4,7,1.4,8,1.9,8
2016/3/10 9:58,1.4,8,1.4,8,3.3,9
2016/3/10 9:59,1.5,8,1.5,8,2.2,10
2016/3/10 10:00,1.3,8,1.4,8,1.1,9
2016/3/10 10:01,1.1,8,1.3,8,1.4,10
2016/3/10 10:02,1,8,1.1,8,0.8,11
2016/3/10 10:03,0.9,9,1,7,0.5,10
2016/3/10 10:04,0.9,9,0.9,7,0.9,7
2016/3/10 10:05,0.8,8,0.9,7,1,5
2016/3/10 10:06,0.7,8,0.8,8,0.9,4
2016/3/10 10:07,0.7,7,0.7,8,0.9,4
2016/3/10 10:08,0.5,7,0.6,8,0.4,4
2016/3/10 10:09,0.4,6,0.5,8,1.3,7
2016/3/10 10:10,0.5,7,0.5,8,1.5,13
2016/3/10 10:11,0.6,7,0.6,8,2.2,8
2016/3/10 10:12,0.7,7,0.7,9,3,9
2016/3/10 10:13,0.8,7,0.8,9,2.4,9
2016/3/10 10:14,0.8,7,0.8,9,0.9,8
2016/3/10 10:15,0.8,8,0.8,8,1.6,8
2016/3/10 10:16,0.8,8,0.8,7,1.1,8
2016/3/10 10:17,0.7,9,0.8,7,0.1,7
2016/3/10 10:18,0.8,9,0.8,7,2,10
2016/3/10 10:19,0.8,9,0.9,9,1.9,8
2016/3/10 10:20,0.9,9,0.9,9,1.8,10
2016/3/10 10:21,0.8,9,0.9,9,2,11
2016/3/10 10:22,0.6,10,0.8,9,1.1,12
2016/3/10 10:23,0.6,10,0.6,9,1.3,12
2016/3/10 10:24,0.6,10,0.6,9,0.6,14
2016/3/10 10:25,0.7,11,0.7,9,2.7,8
2016/3/10 10:26,0.8,11,0.8,9,2.6,10
2016/3/10 10:27,0.9,11,0.9,9,2.2,8
2016/3/10 10:28,0.8,11,0.9,9,1.1,9
2016/3/10 10:29,0.9,10,0.9,9,3.6,8
2016/3/10 10:30,1,10,1,10,2.9,8
2016/3/10 10:31,1.1,10,1.1,10,4.3,9
2016/3/10 10:32,1.2,9,1.2,9,3.2,9
2016/3/10 10:33,1.3,9,1.3,9,2.2,8
2016/3/10 10:34,1.4,9,1.4,9,3.1,10
2016/3/10 10:35,1.4,9,1.4,9,3.3,9
2016/3/10 10:36,1.4,9,1.4,9,3,9
2016/3/10 10:37,1.5,9,1.5,9,3,10
2016/3/10 10:38,1.6,9,1.6,9,2.4,10
2016/3/10 10:39,1.6,10,1.6,9,2.7,10
2016/3/10 10:40,1.6,10,1.6,9,2.6,10
2016/3/10 10:41,1.6,10,1.6,9,3.6,9
2016/3/10 10:42,1.6,10,1.6,9,4.3,10
2016/3/10 10:43,1.6,10,1.6,9,3.2,10
2016/3/10 10:44,1.7,10,1.7,10,2.2,12
2016/3/10 10:45,1.7,10,1.8,10,2.4,11
2016/3/10 10:46,1.7,11,1.7,10,2.2,12
2016/3/10 10:47,1.7,11,1.7,10,3.5,12
2016/3/10 10:48,1.7,11,1.7,10,2.1,11
2016/3/10 10:49,1.7,11,1.8,10,2.1,11
2016/3/10 10:50,1.7,12,1.7,10,1.6,12
2016/3/10 10:51,1.6,12,1.7,10,1.4,11
2016/3/10 10:52,1.5,12,1.6,10,2,8
2016/3/10 10:53,1.3,12,1.5,10,0.9,5
2016/3/10 10:54,1.3,11,1.3,10,2.6,9
2016/3/10 10:55,1.2,11,1.3,11,3,5
2016/3/10 10:56,1.4,11,1.4,11,3.2,5
2016/3/10 10:57,1.3,10,1.4,11,3.3,7
2016/3/10 10:58,1.4,8,1.4,11,2.6,6
2016/3/10 10:59,1.4,8,1.4,11,2,8
2016/3/10 11:00,1.4,7,1.4,12,3.2,9
2016/3/10 11:01,1.5,7,1.6,12,3.2,9
2016/3/10 11:02,1.6,7,1.6,7,3.7,6
2016/3/10 11:03,1.8,7,1.8,7,3.6,7
2016/3/10 11:04,1.8,7,1.8,7,3.2,9
2016/3/10 11:05,1.9,7,1.9,7,3.7,9
2016/3/10 11:06,1.7,8,1.9,7,2.1,8
2016/3/10 11:07,1.6,8,1.7,7,2.1,9
2016/3/10 11:08,1.6,8,1.6,7,2.9,9
2016/3/10 11:09,1.6,8,1.6,7,2,9
2016/3/10 11:10,1.6,8,1.6,7,1.6,4
2016/3/10 11:11,1.4,7,1.5,7,0.9,4
2016/3/10 11:12,1.3,8,1.4,7,1.6,12
2016/3/10 11:13,1.2,8,1.3,7,1.6,10
2016/3/10 11:14,1.1,9,1.2,7,2,11
2016/3/10 11:15,0.9,9,1.1,7,2,8
2016/3/10 11:16,0.9,9,0.9,8,1.3,4
2016/3/10 11:17,0.9,10,0.9,8,1.5,14
2016/3/10 11:18,0.8,10,0.9,8,2.4,12
2016/3/10 11:19,0.9,10,0.9,8,2.6,9
2016/3/10 11:20,1.1,10,1.1,8,4.8,8
2016/3/10 11:21,1.2,10,1.2,7,4.4,8
2016/3/10 11:22,1.4,10,1.4,10,3.8,6
2016/3/10 11:23,1.5,9,1.5,9,3.1,8
2016/3/10 11:24,1.5,9,1.5,9,1.4,7
2016/3/10 11:25,1.4,8,1.5,9,1.6,2
2016/3/10 11:26,1.5,8,1.5,9,2.4,14
2016/3/10 11:27,1.6,8,1.6,8,2.1,16
2016/3/10 11:28,1.5,7,1.6,8,0.8,1
2016/3/10 11:29,1.4,7,1.4,8,1.8,5